timestamp,surface_pressure_avg,surface_temp_avg,battery_voltage,lat,long
2021-02-03 00:09:01+00:00,250.9214,2.02,12.65,47.84626,-54.09684
2021-02-03 00:19:01+00:00,261.2497,2.0,12.65,47.84626,-54.09684
2021-02-03 00:29:01+00:00,263.1546,2.01,12.65,47.84626,-54.09684
2021-02-03 00:39:01+00:00,262.4614,2.01,12.65,47.84626,-54.09684
2021-02-03 00:49:01+00:00,271.1813,2.0,12.65,47.84626,-54.09684
2021-02-03 00:59:01+00:00,280.4381,2.0,12.65,47.84626,-54.09684
2021-02-03 01:09:01+00:00,285.0914,2.0,12.65,47.84626,-54.09684
2021-02-03 01:19:01+00:00,283.1464,2.0,12.57,47.84626,-54.09684
2021-02-03 01:29:01+00:00,292.2114,2.0,12.57,47.84626,-54.09684
2021-02-03 01:39:01+00:00,304.298,2.0,12.57,47.84626,-54.09684
2021-02-03 01:49:01+00:00,310.153,2.0,12.57,47.84626,-54.09684
2021-02-03 01:59:01+00:00,310.9797,2.0,12.57,47.84626,-54.09684
2021-02-03 02:09:01+00:00,318.9813,2.0,12.57,47.84626,-54.09684
2021-02-03 02:19:01+00:00,325.8964,2.0,12.57,47.84626,-54.09684
2021-02-03 02:29:01+00:00,328.7529,2.0,12.57,47.84626,-54.09684
2021-02-03 02:39:01+00:00,334.0764,2.0,12.57,47.84626,-54.09684
2021-02-03 02:49:01+00:00,339.0629,2.01,12.57,47.84626,-54.09684
2021-02-03 02:59:01+00:00,341.8663,2.0,12.57,47.84626,-54.09684
2021-02-03 03:09:01+00:00,345.5796,2.0,12.57,47.84626,-54.09684
2021-02-03 03:19:01+00:00,346.0562,2.0,12.57,47.84626,-54.09684
2021-02-03 03:29:01+00:00,347.9646,1.9,12.57,47.84626,-54.09684
2021-02-03 03:39:01+00:00,349.5114,1.89,12.57,47.84626,-54.09684
2021-02-03 03:49:01+00:00,348.6246,1.8,12.57,47.84626,-54.09684
2021-02-03 03:59:01+00:00,345.7029,1.8,12.57,47.84626,-54.09684
2021-02-03 04:09:01+00:00,350.2812,1.85,12.57,47.84626,-54.09684
2021-02-03 04:19:01+00:00,353.2145,1.89,12.57,47.84626,-54.09684
2021-02-03 04:29:01+00:00,349.403,1.9,12.57,47.84626,-54.09684
2021-02-03 04:39:01+00:00,350.9829,1.9,12.57,47.84626,-54.09684
2021-02-03 04:49:01+00:00,352.973,1.9,12.57,47.84626,-54.09684
2021-02-03 04:59:01+00:00,355.9479,1.9,12.57,47.84626,-54.09684
2021-02-03 05:09:01+00:00,353.223,1.92,12.57,47.84626,-54.09684
2021-02-03 05:19:01+00:00,348.9329,1.97,12.57,47.84626,-54.09684
2021-02-03 05:29:01+00:00,345.8862,1.98,12.57,47.84626,-54.09684
2021-02-03 05:39:01+00:00,333.8547,1.99,12.57,47.84626,-54.09684
2021-02-03 05:49:01+00:00,324.5114,2.0,12.57,47.84626,-54.09684
2021-02-03 05:59:01+00:00,320.9147,2.0,12.57,47.84626,-54.09684
2021-02-03 06:09:01+00:00,316.1114,1.99,12.57,47.84626,-54.09684
2021-02-03 06:19:01+00:00,299.4146,1.99,12.57,47.84626,-54.09684
2021-02-03 06:29:01+00:00,290.6764,1.97,12.57,47.84626,-54.09684
2021-02-03 06:39:01+00:00,289.3597,1.92,12.57,47.84626,-54.09684
2021-02-03 06:49:01+00:00,278.868,1.9,12.57,47.84626,-54.09684
2021-02-03 06:59:01+00:00,265.3947,1.9,12.57,47.84626,-54.09684
2021-02-03 07:09:01+00:00,259.8214,1.9,12.57,47.84626,-54.09684
2021-02-03 07:19:01+00:00,255.1314,1.9,12.49,47.84626,-54.09684
2021-02-03 07:29:01+00:00,239.8064,1.9,12.49,47.84626,-54.09684
2021-02-03 07:39:01+00:00,225.8964,1.9,12.49,47.84626,-54.09684
2021-02-03 07:49:01+00:00,224.3231,1.9,12.49,47.84626,-54.09684
2021-02-03 07:59:01+00:00,218.3664,1.9,12.49,47.84626,-54.09684
2021-02-03 08:09:01+00:00,206.3431,1.9,12.49,47.84626,-54.09684
2021-02-03 08:19:01+00:00,202.9515,1.9,12.49,47.84626,-54.09684
2021-02-03 08:29:01+00:00,205.5181,1.82,12.49,47.84626,-54.09684
2021-02-03 08:39:01+00:00,202.1698,1.8,12.49,47.84626,-54.09684
2021-02-03 08:49:01+00:00,199.9632,1.8,12.49,47.84626,-54.09684
2021-02-03 08:59:01+00:00,201.1631,1.73,12.49,47.84626,-54.09684
2021-02-03 09:09:01+00:00,196.8398,1.7,12.49,47.84626,-54.09684
2021-02-03 09:19:01+00:00,194.7314,1.7,12.49,47.84626,-54.09684
2021-02-03 09:29:01+00:00,199.6748,1.7,12.49,47.84626,-54.09684
2021-02-03 09:39:01+00:00,203.2881,1.7,12.49,47.84626,-54.09684
2021-02-03 09:49:01+00:00,200.6348,1.7,12.49,47.84626,-54.09684
2021-02-03 09:59:01+00:00,202.4498,1.7,12.49,47.84626,-54.09684
2021-02-03 10:09:01+00:00,210.4197,1.7,12.49,47.84626,-54.09684
2021-02-03 10:19:01+00:00,207.7531,1.7,12.49,47.84626,-54.09684
2021-02-03 10:29:01+00:00,210.0847,1.7,12.49,47.84626,-54.09684
2021-02-03 10:39:01+00:00,225.6448,1.7,12.49,47.84626,-54.09684
2021-02-03 10:49:01+00:00,230.1731,1.7,12.49,47.84626,-54.09684
2021-02-03 10:59:01+00:00,229.7047,1.7,12.49,47.84626,-54.09684
2021-02-03 11:09:01+00:00,237.8731,1.7,12.49,47.84626,-54.09684
2021-02-03 11:19:01+00:00,247.9998,1.7,12.49,47.84626,-54.09684
2021-02-03 11:29:01+00:00,248.1081,1.7,12.49,47.84626,-54.09684
2021-02-03 11:39:01+00:00,248.0464,1.7,12.49,47.84626,-54.09684
2021-02-03 11:49:01+00:00,250.1398,1.7,12.49,47.84626,-54.09684
2021-02-03 11:59:01+00:00,248.8647,1.7,12.49,47.84626,-54.09684
2021-02-03 12:09:01+00:00,249.7281,1.7,12.49,47.84626,-54.09684
2021-02-03 12:19:01+00:00,257.9581,1.65,12.49,47.84626,-54.09684
2021-02-03 12:29:01+00:00,265.0764,1.67,12.49,47.84626,-54.09684
2021-02-03 12:39:01+00:00,270.8581,1.65,12.49,47.84626,-54.09684
2021-02-03 12:49:01+00:00,272.8881,1.5,12.49,47.84626,-54.09684
2021-02-03 12:59:01+00:00,279.4664,1.5,12.49,47.84626,-54.09684
2021-02-03 13:09:01+00:00,288.0048,1.6,12.49,47.84626,-54.09684
2021-02-03 13:19:01+00:00,297.1631,1.6,12.49,47.84626,-54.09684
2021-02-03 13:29:01+00:00,298.663,1.6,12.49,47.84626,-54.09684
2021-02-03 13:39:01+00:00,308.528,1.6,12.49,47.84626,-54.09684
2021-02-03 13:49:01+00:00,314.808,1.6,12.49,47.84626,-54.09684
2021-02-03 13:59:01+00:00,322.418,1.6,12.49,47.84626,-54.09684
2021-02-03 14:09:01+00:00,321.7614,1.6,12.49,47.84626,-54.09684
2021-02-03 14:19:01+00:00,333.468,1.63,12.49,47.84626,-54.09684
2021-02-03 14:29:01+00:00,344.9596,1.63,12.49,47.84626,-54.09684
2021-02-03 14:39:01+00:00,352.608,1.69,12.49,47.84626,-54.09684
2021-02-03 14:49:01+00:00,349.0213,1.7,12.49,47.84626,-54.09684
2021-02-03 14:59:01+00:00,348.0446,1.76,12.49,47.84626,-54.09684
2021-02-03 15:09:01+00:00,352.533,1.77,12.49,47.84626,-54.09684
2021-02-03 15:19:01+00:00,355.9863,1.79,12.65,47.84626,-54.09684
2021-02-03 15:29:01+00:00,355.413,1.8,12.65,47.84626,-54.09684
2021-02-03 15:39:01+00:00,360.9196,1.8,12.65,47.84626,-54.09684
2021-02-03 15:49:01+00:00,364.8746,1.8,12.65,47.84626,-54.09684
2021-02-03 15:59:01+00:00,356.6746,1.8,12.65,47.84626,-54.09684
2021-02-03 16:09:01+00:00,353.8563,1.8,12.65,47.84626,-54.09684
2021-02-03 16:19:01+00:00,356.473,1.85,12.73,47.84626,-54.09684
2021-02-03 16:29:01+00:00,357.9946,1.87,12.73,47.84626,-54.09684
2021-02-03 16:39:01+00:00,350.9713,1.89,12.73,47.84626,-54.09684
2021-02-03 16:49:01+00:00,354.0846,1.89,12.73,47.84626,-54.09684
2021-02-03 16:59:01+00:00,359.36800000000005,1.9,12.73,47.84626,-54.09684
2021-02-03 17:09:01+00:00,355.2964,1.89,12.73,47.84626,-54.09684
2021-02-03 17:19:01+00:00,345.38300000000015,1.89,12.65,47.84626,-54.09684
2021-02-03 17:29:01+00:00,348.2595,1.89,12.65,47.84626,-54.09684
2021-02-03 17:39:01+00:00,344.2813,1.89,12.65,47.84626,-54.09684
2021-02-03 17:49:01+00:00,333.3347,1.89,12.65,47.84626,-54.09684
2021-02-03 17:59:01+00:00,322.1897,1.9,12.65,47.84626,-54.09684
2021-02-03 18:09:01+00:00,320.3831,1.9,12.65,47.84626,-54.09684
2021-02-03 18:19:01+00:00,307.4213,1.9,12.57,47.84626,-54.09684
2021-02-03 18:29:01+00:00,298.3146,1.9,12.57,47.84626,-54.09684
2021-02-03 18:39:01+00:00,299.7714,1.9,12.57,47.84626,-54.09684
2021-02-03 18:49:01+00:00,287.8697,1.9,12.57,47.84626,-54.09684
2021-02-03 18:59:01+00:00,268.6381,1.9,12.57,47.84626,-54.09684
2021-02-03 19:09:01+00:00,263.6147,1.9,12.57,47.84626,-54.09684
2021-02-03 19:19:01+00:00,256.7965,1.9,12.49,47.84626,-54.09684
2021-02-03 19:29:01+00:00,240.6948,1.9,12.49,47.84626,-54.09684
2021-02-03 19:39:01+00:00,233.2631,1.9,12.49,47.84626,-54.09684
2021-02-03 19:49:01+00:00,228.2381,1.9,12.49,47.84626,-54.09684
2021-02-03 19:59:01+00:00,214.0982,1.9,12.49,47.84626,-54.09684
2021-02-03 20:09:01+00:00,201.9365,1.9,12.49,47.84626,-54.09684
2021-02-03 20:19:01+00:00,203.9115,1.9,12.49,47.84626,-54.09684
2021-02-03 20:29:01+00:00,199.1781,1.9,12.49,47.84626,-54.09684
2021-02-03 20:39:01+00:00,191.8431,1.9,12.49,47.84626,-54.09684
2021-02-03 20:49:01+00:00,194.2681,1.9,12.49,47.84626,-54.09684
2021-02-03 20:59:01+00:00,195.7981,1.9,12.49,47.84626,-54.09684
2021-02-03 21:09:01+00:00,187.7231,1.9,12.49,47.84626,-54.09684
2021-02-03 21:19:01+00:00,181.0948,1.9,12.49,47.84626,-54.09684
2021-02-03 21:29:01+00:00,189.0164,1.9,12.49,47.84626,-54.09684
2021-02-03 21:39:01+00:00,189.7014,1.9,12.49,47.84626,-54.09684
2021-02-03 21:49:01+00:00,181.0431,1.9,12.49,47.84626,-54.09684
2021-02-03 21:59:01+00:00,186.3481,1.9,12.49,47.84626,-54.09684
2021-02-03 22:09:01+00:00,199.2314,1.9,12.49,47.84626,-54.09684
2021-02-03 22:19:01+00:00,196.3297,1.9,12.49,47.84626,-54.09684
2021-02-03 22:29:01+00:00,191.4348,1.9,12.49,47.84626,-54.09684
2021-02-03 22:39:01+00:00,201.3131,1.9,12.49,47.84626,-54.09684
2021-02-03 22:49:01+00:00,206.8248,1.9,12.49,47.84626,-54.09684
2021-02-03 22:59:01+00:00,198.1964,1.9,12.49,47.84626,-54.09684
2021-02-03 23:09:01+00:00,204.1347,1.9,12.49,47.84626,-54.09684
2021-02-03 23:19:01+00:00,216.3398,1.9,12.49,47.84626,-54.09684
2021-02-03 23:29:01+00:00,213.3998,1.9,12.49,47.84626,-54.09684
2021-02-03 23:39:01+00:00,214.7448,1.9,12.49,47.84626,-54.09684
2021-02-03 23:49:01+00:00,222.0514,1.9,12.49,47.84626,-54.09684
2021-02-03 23:59:01+00:00,224.6081,1.9,12.49,47.84626,-54.09684
